GALILEO216 [COD] 1 43056C 17079B 22226.99979167 .00000000 00000+0 00000+0 0 2264 2 43056 55.7076 260.1112 0005622 270.5491 219.6428 1.70474467 19 GALILEO216 [ESA] 1 43056C 17079B 22226.99979167 .00000000 00000+0 00000+0 0 2264 2 43056 55.7076 260.1112 0005622 270.5499 219.6421 1.70474467 10 GALILEO216 [GAL] 1 43056C 17079B 22227.01020833 .00000000 00000+0 00000+0 0 2276 2 43056 55.7076 260.1109 0005622 270.5498 226.0351 1.70474468 10